Weather History for KTPA - February, 2013

Change the Weather History Date:

Thursday, February 28, 2013

  Actual Average Record
Temperature  
Mean Temperature 63 °F 65 °F  
Max Temperature 72 °F 74 °F 86 °F (1997)
Min Temperature 54 °F 56 °F 30 °F (1935)
Degree Days  
Heating Degree Days 2 3  
Month to date heating degree days 79 107  
Since 1 July heating degree days 257 471  
Cooling Degree Days 0 3  
Month to date cooling degree days 89 63  
Year to date cooling degree days 214 113  
Growing Degree Days 13 (Base 50)    
Moisture  
Dew Point 50 °F    
Average Humidity 64    
Maximum Humidity 86    
Minimum Humidity 41    
Precipitation  
Precipitation 0.00 in 0.09 in 3.14 in (1946)
Month to date precipitation 0.93 2.81  
Year to date precipitation 1.56 5.04  
Sea Level Pressure  
Sea Level Pressure 29.98 in    
Wind  
Wind Speed 7 mph (WNW)    
Max Wind Speed 17 mph    
Max Gust Speed 24 mph    
Visibility 10 miles    
Events      
T = Trace of Precipitation, MM = Missing Value Source: NWS Daily Summary

Daily Weather History Graph

Daily Weather History Graph

Search for Another Location

Airport or City:

Trip Planner

Search our weather history database for the weather conditions in past years. The results will help you decide how hot, cold, wet, or windy it might be!

Date:

Astronomy

Feb. 28, 2013 Rise Set
Actual Time 6:55 AM EST 6:30 PM EST
Civil Twilight 6:31 AM EST 6:53 PM EST
Nautical Twilight 6:04 AM EST 7:20 PM EST
Astronomical Twilight 5:37 AM EST 7:48 PM EST
Moon 9:32 PM EST (2/28) 8:24 AM EST (2/28)
Length of Visible Light 12h 21m
Length of Day
11h 34m
Waning Gibbous, 91% of the Moon is Illuminated
Feb 28
Waning Gibbous
Mar 4
Last Quarter
Mar 11
New
Mar 19
First Quarter
Mar 27
Full

Hourly Weather History & Observations

Time (EST) Temp. Dew Point Humidity Pressure Visibility Wind Dir Wind Speed Gust Speed Precip Events Conditions
12:53 AM 57.2 °F 51.8 °F 82% 29.98 in 10.0 mi Calm Calm - N/A   Scattered Clouds
1:53 AM 57.9 °F 51.1 °F 78% 29.98 in 10.0 mi Calm Calm - N/A   Scattered Clouds
2:53 AM 55.9 °F 50.0 °F 80% 29.97 in 10.0 mi Calm Calm - N/A   Scattered Clouds
3:53 AM 57.2 °F 51.8 °F 82% 29.97 in 10.0 mi Calm Calm - N/A   Mostly Cloudy
4:53 AM 57.9 °F 51.1 °F 78% 29.98 in 10.0 mi Calm Calm - N/A   Partly Cloudy
5:53 AM 55.9 °F 50.0 °F 80% 29.98 in 10.0 mi North 4.6 mph - N/A   Partly Cloudy
6:53 AM 55.9 °F 51.1 °F 84% 29.99 in 10.0 mi Variable 4.6 mph - N/A   Partly Cloudy
7:53 AM 60.1 °F 52.0 °F 75% 30.01 in 10.0 mi North 3.5 mph - N/A   Scattered Clouds
8:53 AM 64.0 °F 52.0 °F 65% 30.02 in 10.0 mi NW 5.8 mph - N/A   Scattered Clouds
9:53 AM 66.9 °F 52.0 °F 59% 30.02 in 10.0 mi Variable 6.9 mph - N/A   Scattered Clouds
10:53 AM 69.1 °F 48.9 °F 49% 30.01 in 10.0 mi West 9.2 mph - N/A   Scattered Clouds
11:53 AM 70.0 °F 50.0 °F 49% 30.01 in 10.0 mi West 9.2 mph 17.3 mph N/A   Scattered Clouds
12:53 PM 71.1 °F 50.0 °F 47% 29.99 in 10.0 mi West 10.4 mph - N/A   Scattered Clouds
1:53 PM 71.1 °F 50.0 °F 47% 29.96 in 10.0 mi West 11.5 mph - N/A   Scattered Clouds
2:53 PM 72.0 °F 48.9 °F 44% 29.95 in 10.0 mi WNW 10.4 mph 19.6 mph N/A   Scattered Clouds
3:53 PM 71.6 °F 46.4 °F 41% 29.94 in 10.0 mi WNW 13.8 mph - N/A   Partly Cloudy
4:53 PM 69.1 °F 46.9 °F 45% 29.94 in 10.0 mi WNW 12.7 mph 21.9 mph N/A   Scattered Clouds
5:53 PM 66.9 °F 48.0 °F 51% 29.95 in 10.0 mi WNW 11.5 mph 20.7 mph N/A   Scattered Clouds
6:53 PM 64.0 °F 53.1 °F 67% 29.97 in 10.0 mi NW 11.5 mph - N/A   Scattered Clouds
7:53 PM 62.1 °F 48.9 °F 62% 29.99 in 10.0 mi WNW 8.1 mph - N/A   Scattered Clouds
8:53 PM 60.1 °F 48.0 °F 64% 29.98 in 10.0 mi WNW 6.9 mph - N/A   Partly Cloudy
9:53 PM 59.0 °F 46.9 °F 64% 29.99 in 10.0 mi WNW 6.9 mph - N/A   Partly Cloudy
11:53 PM 57.0 °F 45.0 °F 64% 29.98 in 10.0 mi NW 5.8 mph - N/A   Scattered Clouds